Regional Weather Roundup
Issued by NWS Kansas City/Pleasant Hill, MO

Home | Current Version | Previous Version | Text Only | Print | Product List | Glossary On
Versions: 1 2 3 4 5 6 7 8 9 10 11 12 13 14 15 16 17 18 19 20 21 22 23 24 25 26 27 28 29 30 31 32 33 34 35 36 37 38 39 40 41 42 43 44 45 46 47 48 49 50
000
ASUS43 KEAX 301911
RWREAX

WEATHER ROUNDUP FOR EASTERN KANSAS AND NORTHWEST MISSOURI
NATIONAL WEATHER SERVICE KANSAS CITY/PLEASANT HILL MO
100 PM CST FRI JAN 30 2015

KSZ040-057-103>105-MOZ028-029-037-043-302000-
...KANSAS CITY METROPOLITAN AREA...

CITY           SKY/WX    TMP DP  RH WIND       PRES   REMARKS
K.C. INTL      CLOUDY    36  20  52 SW6       30.49F WCI  31
K.C. DOWNTOWN  PTSUNNY   36  19  50 VRB3      30.51F
LEES SUMMIT    MOSUNNY   36  18  48 CALM      30.50F
OLATHE - IXD   MOSUNNY   35  22  58 VRB3      30.50F
OLATHE - OJC   MOSUNNY   36  20  52 SW5       30.49F WCI  32
LAWRENCE       MOSUNNY   36  22  56 CALM      30.51F

$$

MOZ001>008-011>017-020>025-030>033-038>040-044>046-053-054-302000-
...NORTHERN AND CENTRAL MISSOURI...

CITY           SKY/WX    TMP DP  RH WIND       PRES   REMARKS
ST. JOSEPH     PTSUNNY   33  18  53 S5        30.51F WCI  29
MOSBY          MOCLDY    34  19  55 CALM      30.52F
WARRENSBURG    PTSUNNY   34  21  60 CALM      30.51F
WHITEMAN AFB   PTSUNNY   35  19  53 CALM      30.50F
CLINTON        PTSUNNY   37  21  52 CALM      30.51F
SEDALIA        MOSUNNY   36  20  52 CALM      30.52F
WARSAW         NOT AVBL
MARSHALL       SUNNY     34  23  64 CALM      30.55F
CHILLICOTHE      N/A     35  19  52 S6        30.52F WCI  30
MOBERLY        SUNNY     36  18  48 W3        30.52F
KIRKSVILLE     SUNNY     32  17  54 CALM      30.50F

$$

MOZ041-047>049-056>058-063>065-088>090-097-302000-
...EASTERN AND SOUTHERN MISSOURI...

CITY           SKY/WX    TMP DP  RH WIND       PRES   REMARKS
ST. LOUIS INTL NOT AVBL
SPIRIT OF STL  MOSUNNY   36  16  44 E5        30.51F WCI  32
COLUMBIA       SUNNY     36  18  48 CALM      30.50F
JEFFERSON CITY SUNNY     35  19  52 CALM      30.52F
MEXICO         SUNNY     36  25  64 CALM      30.52F
HANNIBAL       SUNNY     36  14  41 W5        30.50F WCI  32
ROLLA          SUNNY     36  17  46 CALM      30.46F
LEBANON        SUNNY     43  18  36 CALM      30.47F
OSAGE BEACH    SUNNY     37  18  44 CALM      30.49F
SPRINGFIELD    SUNNY     43  16  33 NE3       30.46F
BRANSON        PTSUNNY   46  19  34 CALM      30.48F
NEVADA         SUNNY     39  23  52 CALM      30.51F
JOPLIN         SUNNY     41  23  48 CALM      30.50F
WEST PLAINS    SUNNY     43  17  35 CALM      30.46

$$

IAZ060-094-KSZ022-034>040-054-083-096-NEZ052-066-093-302000-
...KANSAS...SOUTHEAST NEBRASKA AND IOWA...

CITY           SKY/WX    TMP DP  RH WIND       PRES   REMARKS
TOPEKA         MOSUNNY   36  23  59 SW6       30.51F WCI  31
MANHATTAN      PTSUNNY   40  27  59 S5        30.47F
EMPORIA        PTSUNNY   39  24  55 S3        30.47F
CHANUTE        SUNNY     39  25  57 CALM      30.49F
WICHITA        CLOUDY    41  25  53 SE9       30.45F
OMAHA          CLOUDY    32  20  61 S10       30.46F WCI  24
LINCOLN        MOSUNNY   37  25  61 S10       30.43F WCI  30
FALLS CITY     PTSUNNY   34  23  64 S7        30.48F WCI  28
LAMONI         SUNNY     31  14  49 SW5       30.47F WCI  26
DES MOINES     PTSUNNY   30  14  51 S7        30.47F WCI  23

$$




USA.gov is the U.S. government's official web portal to all federal, state and local government web resources and services.